FW1025 Weather Reports


Display with metric or nautical units.
time (UTC)temp
F
wind
direction
speed
MPH
gust
MPH
rain 1hr
in
rain 24hr
in
rain mn
in
humidity
%
barometer
mb
20260505111446 38 189 4.0 9.0 0.00 0.04 0.02 90 1022.8
20260505110416 39 198 4.0 9.0 0.00 0.04 0.02 92 1022.7
20260505101234 39 177 4.0 10.0 0.00 0.04 0.02 91 1022.0
20260505093938 39 184 2.0 6.0 0.00 0.04 0.02 93 1022.2
20260505092955 39 142 1.0 5.0 0.00 0.04 0.02 93 1022.2
20260505091943 40 165 2.0 5.0 0.00 0.04 0.02 93 1022.4
20260505090957 40 140 2.0 6.0 0.00 0.04 0.02 92 1022.4
20260505090000 40 134 2.0 6.0 0.00 0.04 0.02 93 1022.4
20260505085015 40 161 1.0 2.0 0.00 0.04 0.02 93 1022.6
20260505083947 40 155 0.0 2.0 0.00 0.04 0.02 93 1023.0
20260505081903 41 355 0.0 3.0 0.00 0.04 0.02 93 1023.1
20260505080853 41 350 1.0 4.0 0.00 0.04 0.02 93 1023.1
20260505075844 41 314 1.0 4.0 0.00 0.04 0.02 93 1023.3
20260505074846 41 329 1.0 5.0 0.00 0.04 0.02 93 1023.3
20260505073842 41 336 2.0 5.0 0.00 0.04 0.02 92 1023.3
20260505072808 41 336 2.0 4.0 0.00 0.04 0.02 92 1023.0
20260505071733 41 43 1.0 7.0 0.00 0.04 0.02 92 1023.0
20260505070744 41 49 3.0 7.0 0.00 0.04 0.02 92 1023.3
20260505065741 41 336 2.0 6.0 0.00 0.04 0.02 92 1023.3
20260505064731 41 346 2.0 5.0 0.00 0.04 0.02 92 1023.3
20260505063704 41 11 1.0 4.0 0.00 0.04 0.02 91 1023.3
20260505055713 41 24 2.0 7.0 0.00 0.02 0.02 91 1023.6
20260505054719 41 31 3.0 7.0 0.00 0.02 0.02 90 1023.6
20260505053705 41 5 3.0 6.0 0.00 0.02 0.02 90 1023.6
20260505051555 41 351 3.0 9.0 0.00 0.02 0.02 90 1023.4
20260505050607 41 355 5.0 9.0 0.00 0.02 0.02 89 1023.1
20260505040425 42 349 5.0 11.0 0.00 0.02 0.02 85 1022.2
20260505035427 42 30 5.0 11.0 0.00 0.02 0.02 86 1022.1
20260505033242 42 355 2.0 7.0 0.00 0.01 0.01 85 1022.6
20260505032216 42 26 3.0 8.0 0.00 0.01 0.01 84 1022.2
20260505031143 43 27 3.0 8.0 0.00 0.01 0.01 84 1022.5
20260505030149 43 0 3.0 7.0 0.00 0.01 0.01 83 1022.5
20260505022946 43 5 4.0 9.0 0.00 0.01 0.01 79 1022.0
20260505020751 43 38 3.0 8.0 0.00 0.01 0.01 78 1022.0
20260505015741 44 9 3.0 7.0 0.00 0.01 0.01 78 1021.9
20260505014735 44 17 3.0 10.0 0.00 0.01 0.01 77 1021.9
20260505013733 45 5 5.0 22.0 0.00 0.01 0.01 75 1021.9
20260505012706 47 0 10.0 22.0 0.00 0.00 0.00 67 1021.6
20260505011728 49 327 4.0 15.0 0.00 0.00 0.00 55 1021.6
20260505005611 49 319 8.0 16.0 0.00 0.00 0.00 54 1020.5
20260505004615 50 329 8.0 18.0 0.00 0.00 0.00 52 1020.5
20260505003632 51 0 10.0 18.0 0.00 0.00 0.00 49 1020.3
20260505002632 51 36 11.0 18.0 0.00 0.00 0.00 47 1020.2
20260505000547 53 28 10.0 22.0 0.00 0.00 0.00 43 1019.8
20260504235552 53 355 13.0 22.0 0.00 0.00 0.00 43 1019.7
20260504233410 55 11 9.0 19.0 0.00 0.00 0.00 40 1020.2
20260504231244 55 19 5.0 13.0 0.00 0.00 0.00 43 1020.1
20260504230210 53 49 4.0 16.0 0.00 0.00 0.00 42 1020.1
20260504225221 53 51 7.0 22.0 0.00 0.00 0.00 48 1020.1
20260504224246 55 33 8.0 22.0 0.00 0.00 0.00 44 1019.5
20260504222107 58 114 3.0 17.0 0.00 0.00 0.00 31 1019.5
20260504221108 58 93 5.0 17.0 0.00 0.00 0.00 32 1018.9
20260504220128 60 98 6.0 17.0 0.00 0.00 0.00 31 1018.9
20260504215148 60 75 4.0 14.0 0.00 0.00 0.00 29 1019.0
20260504214132 60 83 4.0 12.0 0.00 0.00 0.00 30 1019.0
20260504213110 60 53 3.0 18.0 0.00 0.00 0.00 29 1019.0
20260504212127 60 11 7.0 18.0 0.00 0.00 0.00 27 1018.9
20260504211147 61 28 8.0 15.0 0.00 0.00 0.00 27 1019.3
20260504210118 60 355 9.0 16.0 0.00 0.00 0.00 28 1019.3
20260504205113 60 0 10.0 17.0 0.00 0.00 0.00 27 1019.6
20260504204135 60 355 12.0 19.0 0.00 0.00 0.00 29 1019.6
20260504203128 61 344 14.0 25.0 0.00 0.00 0.00 29 1019.6
20260504201035 62 213 5.0 24.0 0.00 0.00 0.00 27 1019.7
20260504194908 61 204 3.0 10.0 0.00 0.00 0.00 25 1019.7
20260504193834 61 180 3.0 10.0 0.00 0.00 0.00 25 1020.0
20260504192813 61 67 4.0 9.0 0.00 0.00 0.00 25 1020.1
20260504191834 61 57 1.0 6.0 0.00 0.00 0.00 25 1020.1
20260504190811 61 37 2.0 7.0 0.00 0.00 0.00 26 1020.1
20260504185807 61 24 3.0 10.0 0.00 0.00 0.00 25 1020.2
20260504184822 61 45 4.0 13.0 0.00 0.00 0.00 25 1020.2
20260504183817 60 36 6.0 13.0 0.00 0.00 0.00 27 1020.7
20260504182820 59 5 3.0 8.0 0.00 0.00 0.00 27 1020.8
20260504181802 59 266 1.0 7.0 0.00 0.00 0.00 26 1020.8
20260504180826 59 273 2.0 10.0 0.00 0.00 0.00 24 1020.8
20260504174631 61 60 4.0 10.0 0.00 0.00 0.00 24 1020.9
20260504173648 62 271 4.0 11.0 0.00 0.00 0.00 25 1021.5
20260504171429 60 234 8.0 18.0 0.00 0.00 0.00 31 1021.5
20260504170442 58 228 9.0 18.0 0.00 0.00 0.00 35 1021.6
20260504160255 58 280 13.0 21.0 0.00 0.00 0.00 33 1022.2